Location: ?p Thanh B�nh
(16.5833°N, 107.5333°E)
Time: 05:53:43
(UTC+00:00)

YAOGAN 1 - Pass Details

Date: 29 October 2020
Orbit: 618 x 620 km, 97.9° (Epoch: 27 November)

Event Time Altitude Azimuth Distance (km) Brightness Sun altitude
Rises 12:14:07 0° 183° (S) 2,883 6.1 -27.6°
Reaches altitude 10° 12:16:24 10° 191° (S) 1,979 5.3 -28.1°
Maximum altitude 12:20:25 38° 260° (W) 940 3.9 -29.1°
Drops below altitude 10° 12:24:27 10° 329° (NNW) 1,982 5.4 -30.0°
Sets 12:26:45 0° 337° (NNW) 2,888 6.2 -30.6°
